This is the latest recevied weather packets stored in our database for station/object IR9AK-10. If no packets are shown the sender has not sent any weather packets the latest 10 day(s).
| Time | Temp. | Humidity | Pressure | Rain* | Wind** | Luminosity | Snow |
|---|---|---|---|---|---|---|---|
| 1778044513 | 20.56° C | 51% | 1058.5 hPa | - | - | - | - |
| 1778043914 | 20° C | 50% | 1058.4 hPa | - | - | - | - |
| 1778043315 | 20° C | 48% | 1058.2 hPa | - | - | - | - |
| 1778042715 | 20° C | 51% | 1058.2 hPa | - | - | - | - |
| 1778042117 | 20° C | 52% | 1058.2 hPa | - | - | - | - |
| 1778041517 | 20° C | 53% | 1058.2 hPa | - | - | - | - |
| 1778040917 | 20° C | 52% | 1058 hPa | - | - | - | - |
| 1778040319 | 20° C | 50% | 1057.9 hPa | - | - | - | - |
| 1778039719 | 20.56° C | 47% | 1057.9 hPa | - | - | - | - |
| 1778039120 | 20.56° C | 47% | 1057.9 hPa | - | - | - | - |
| 1778038521 | 20° C | 48% | 1057.7 hPa | - | - | - | - |
| 1778037923 | 20° C | 50% | 1057.7 hPa | - | - | - | - |
| 1778037324 | 19.44° C | 57% | 1057.7 hPa | - | - | - | - |
| 1778036725 | 19.44° C | 59% | 1057.8 hPa | - | - | - | - |
| 1778036127 | 19.44° C | 57% | - | - | - | - | - |
| 1778035527 | 19.44° C | 62% | 1057.8 hPa | - | - | - | - |
| 1778034929 | 20° C | 61% | 1057.9 hPa | - | - | - | - |
| 1778034331 | 20° C | 65% | 1057.9 hPa | - | - | - | - |
| 1778033731 | 20° C | 66% | 1057.8 hPa | - | - | - | - |
| 1778033133 | 20° C | 65% | 1057.8 hPa | - | - | - | - |
| 1778032533 | 19.44° C | 64% | 1057.8 hPa | - | - | - | - |
| 1778031934 | 19.44° C | 62% | 1057.8 hPa | - | - | - | - |
| 1778031334 | 19.44° C | 55% | 1057.9 hPa | - | - | - | - |
| 1778030735 | 19.44° C | 54% | 1057.9 hPa | - | - | - | - |
| 1778030136 | 20° C | 53% | 1058.1 hPa | - | - | - | - |
* Rain since midnight (hover to see other rain measurements)
** Current wind speed in m/s (hover to see current wind gust speed)